When you browse on this site, cookies collect data to enhance your experience and personalize the content and advertising you see.
Visit our Privacy Policy to learn more. By continuing to use the site, you agree to this use of cookies and data.
EN

Hourly Weather Pokrovskiy (Krasnoarmijsk)

Today, 11 July, Saturday

Time Temperature Precipitation Wind Pressure Humidity
00:00 +17°C° 0 mm 2 mps 747 mmHg 67%
01:00 +17°C° 0 mm 2 mps 747 mmHg 68%
02:00 +17°C° 0 mm 2 mps 747 mmHg 70%
03:00 +17°C° 0 mm 2 mps 748 mmHg 71%
04:00 +17°C° 0 mm 2 mps 748 mmHg 72%
05:00 +17°C° 0 mm 2 mps 748 mmHg 74%
06:00 +19°C° 0 mm 3 mps 748 mmHg 67%
07:00 +21°C° 0 mm 3 mps 748 mmHg 61%
08:00 +24°C° 0 mm 3 mps 748 mmHg 54%
09:00 +25°C° 0 mm 3 mps 748 mmHg 50%
10:00 +26°C° 0 mm 4 mps 748 mmHg 46%
11:00 +27°C° 0 mm 4 mps 748 mmHg 42%
12:00 +28°C° 0 mm 4 mps 748 mmHg 40%
13:00 +28°C° 0 mm 4 mps 747 mmHg 39%
14:00 +29°C° 0 mm 4 mps 747 mmHg 37%
15:00 +28°C° 0 mm 4 mps 746 mmHg 39%
16:00 +28°C° 0 mm 4 mps 746 mmHg 41%
17:00 +28°C° 0 mm 4 mps 746 mmHg 44%
18:00 +26°C° 0 mm 4 mps 746 mmHg 49%
19:00 +24°C° 0 mm 3 mps 745 mmHg 55%
20:00 +21°C° 0 mm 3 mps 745 mmHg 60%
21:00 +20°C° 0 mm 3 mps 745 mmHg 63%
22:00 +20°C° 0 mm 3 mps 745 mmHg 66%
23:00 +19°C° 0 mm 3 mps 745 mmHg 69%

Tomorrow, 12 July, Sunday

Time Temperature Precipitation Wind Pressure Humidity
00:00 +19°C° 0 mm 3 mps 745 mmHg 71%
01:00 +18°C° 0 mm 3 mps 744 mmHg 74%
02:00 +18°C° 0 mm 3 mps 744 mmHg 76%
03:00 +18°C° 0 mm 4 mps 744 mmHg 77%
04:00 +18°C° 0 mm 4 mps 743 mmHg 78%
05:00 +18°C° 0 mm 4 mps 743 mmHg 79%
06:00 +20°C° 0 mm 4 mps 743 mmHg 75%
07:00 +22°C° 0 mm 4 mps 743 mmHg 70%
08:00 +25°C° 0 mm 4 mps 743 mmHg 66%
09:00 +27°C° 0 mm 4 mps 743 mmHg 61%
10:00 +29°C° 0 mm 4 mps 742 mmHg 56%
11:00 +32°C° 0 mm 4 mps 742 mmHg 52%
12:00 +31°C° 0 mm 3 mps 742 mmHg 51%
13:00 +31°C° 0 mm 3 mps 741 mmHg 50%
14:00 +31°C° 0 mm 3 mps 741 mmHg 50%
15:00 +31°C° 0.1 mm 3 mps 740 mmHg 51%
16:00 +31°C° 0.1 mm 3 mps 740 mmHg 51%
17:00 +31°C° 0.1 mm 3 mps 739 mmHg 52%
18:00 +28°C° 1.3 mm 2 mps 739 mmHg 62%
19:00 +26°C° 1.3 mm 2 mps 739 mmHg 72%
20:00 +24°C° 1.3 mm 2 mps 739 mmHg 82%
21:00 +23°C° 1.4 mm 2 mps 739 mmHg 84%
22:00 +23°C° 1.4 mm 2 mps 739 mmHg 86%
23:00 +21°C° 1.4 mm 2 mps 739 mmHg 89%

Day after tomorrow, 13 July, Monday

Time Temperature Precipitation Wind Pressure Humidity
00:00 +21°C° 0.3 mm 2 mps 738 mmHg 89%
01:00 +21°C° 0.3 mm 2 mps 738 mmHg 90%
02:00 +22°C° 0.3 mm 1 mps 738 mmHg 91%
03:00 +22°C° 0.1 mm 1 mps 737 mmHg 91%
04:00 +22°C° 0.1 mm 1 mps 737 mmHg 90%
05:00 +22°C° 0.1 mm 1 mps 737 mmHg 90%
06:00 +23°C° 0.1 mm 1 mps 737 mmHg 85%
07:00 +24°C° 0.1 mm 1 mps 737 mmHg 80%
08:00 +25°C° 0.1 mm 1 mps 737 mmHg 75%
09:00 +27°C° 0.2 mm 1 mps 737 mmHg 69%
10:00 +28°C° 0.2 mm 1 mps 736 mmHg 64%
11:00 +29°C° 0.2 mm 1 mps 736 mmHg 58%
12:00 +30°C° 0.2 mm 1 mps 736 mmHg 55%
13:00 +31°C° 0.2 mm 1 mps 736 mmHg 51%
14:00 +32°C° 0.2 mm 1 mps 736 mmHg 47%
15:00 +31°C° 0.5 mm 2 mps 735 mmHg 52%
16:00 +30°C° 0.5 mm 3 mps 735 mmHg 57%
17:00 +29°C° 0.5 mm 3 mps 735 mmHg 61%
18:00 +26°C° 2.2 mm 3 mps 735 mmHg 70%
19:00 +24°C° 2.2 mm 3 mps 736 mmHg 79%
20:00 +21°C° 2.2 mm 3 mps 736 mmHg 88%
21:00 +20°C° 0.1 mm 2 mps 736 mmHg 89%
22:00 +20°C° 0.1 mm 2 mps 736 mmHg 91%
23:00 +19°C° 0.1 mm 2 mps 736 mmHg 92%

14 July, Tuesday

Time Temperature Precipitation Wind Pressure Humidity
00:00 +19°C° 0 mm 3 mps 736 mmHg 93%
01:00 +19°C° 0 mm 4 mps 736 mmHg 94%
02:00 +19°C° 0 mm 4 mps 736 mmHg 95%
03:00 +19°C° 0 mm 4 mps 736 mmHg 94%
04:00 +17°C° 0 mm 5 mps 736 mmHg 93%
05:00 +17°C° 0 mm 5 mps 736 mmHg 93%
06:00 +17°C° 0 mm 5 mps 736 mmHg 92%
07:00 +17°C° 0 mm 5 mps 737 mmHg 91%
08:00 +17°C° 0 mm 5 mps 737 mmHg 90%
09:00 +17°C° 0 mm 5 mps 737 mmHg 87%
10:00 +19°C° 0 mm 5 mps 738 mmHg 84%
11:00 +19°C° 0 mm 5 mps 738 mmHg 81%
12:00 +20°C° 0 mm 5 mps 738 mmHg 79%
13:00 +20°C° 0 mm 5 mps 738 mmHg 77%
14:00 +21°C° 0 mm 6 mps 738 mmHg 74%
15:00 +20°C° 0.3 mm 6 mps 738 mmHg 75%
16:00 +20°C° 0.3 mm 6 mps 738 mmHg 76%
17:00 +20°C° 0.3 mm 6 mps 738 mmHg 77%
18:00 +19°C° 0.1 mm 5 mps 739 mmHg 81%
19:00 +18°C° 0.1 mm 4 mps 739 mmHg 85%
20:00 +17°C° 0.1 mm 4 mps 740 mmHg 88%
21:00 +17°C° 0 mm 4 mps 740 mmHg 90%
22:00 +15°C° 0 mm 4 mps 740 mmHg 91%
23:00 +15°C° 0 mm 4 mps 740 mmHg 92%

15 July, Wednesday

Time Temperature Precipitation Wind Pressure Humidity
00:00 +15°C° 0 mm 5 mps 740 mmHg 91%
01:00 +14°C° 0 mm 5 mps 740 mmHg 91%
02:00 +14°C° 0 mm 5 mps 740 mmHg 90%
03:00 +14°C° 0 mm 5 mps 741 mmHg 90%
04:00 +14°C° 0 mm 4 mps 741 mmHg 90%
05:00 +13°C° 0 mm 4 mps 741 mmHg 89%
06:00 +15°C° 0 mm 4 mps 742 mmHg 83%
07:00 +18°C° 0 mm 4 mps 742 mmHg 77%
08:00 +19°C° 0 mm 4 mps 742 mmHg 70%
09:00 +21°C° 0 mm 5 mps 743 mmHg 64%
10:00 +22°C° 0 mm 5 mps 743 mmHg 57%
11:00 +25°C° 0 mm 5 mps 743 mmHg 51%
12:00 +25°C° 0 mm 5 mps 743 mmHg 49%
13:00 +25°C° 0 mm 5 mps 743 mmHg 46%
14:00 +26°C° 0 mm 5 mps 743 mmHg 44%
15:00 +26°C° 0 mm 5 mps 743 mmHg 46%
16:00 +25°C° 0 mm 4 mps 743 mmHg 47%
17:00 +25°C° 0 mm 4 mps 743 mmHg 48%
18:00 +22°C° 0 mm 3 mps 743 mmHg 54%
19:00 +21°C° 0 mm 2 mps 743 mmHg 60%
20:00 +20°C° 0 mm 1 mps 743 mmHg 66%
21:00 +19°C° 0 mm 1 mps 743 mmHg 68%
22:00 +18°C° 0 mm 1 mps 743 mmHg 71%
23:00 +16°C° 0 mm 0 mps 743 mmHg 73%

16 July, Thursday

Time Temperature Precipitation Wind Pressure Humidity
00:00 +15°C° 0 mm 0 mps 743 mmHg 74%
01:00 +15°C° 0 mm 0 mps 743 mmHg 74%
02:00 +15°C° 0 mm 0 mps 743 mmHg 75%
03:00 +15°C° 0 mm 0 mps 743 mmHg 75%
04:00 +15°C° 0 mm 0 mps 743 mmHg 74%
05:00 +18°C° 0 mm 1 mps 743 mmHg 74%
06:00 +18°C° 0 mm 0 mps 743 mmHg 68%
07:00 +19°C° 0 mm 0 mps 744 mmHg 61%
08:00 +21°C° 0 mm 0 mps 744 mmHg 55%
09:00 +24°C° 0 mm 1 mps 744 mmHg 51%
10:00 +25°C° 0 mm 1 mps 744 mmHg 46%
11:00 +26°C° 0 mm 2 mps 743 mmHg 42%
12:00 +26°C° 0 mm 2 mps 743 mmHg 42%
13:00 +26°C° 0 mm 2 mps 743 mmHg 42%
14:00 +26°C° 0 mm 1 mps 743 mmHg 42%
15:00 +26°C° 0 mm 1 mps 743 mmHg 42%
16:00 +26°C° 0 mm 1 mps 742 mmHg 42%
17:00 +26°C° 0 mm 1 mps 742 mmHg 43%
18:00 +25°C° 0 mm 1 mps 742 mmHg 46%
19:00 +23°C° 0 mm 1 mps 742 mmHg 50%
20:00 +22°C° 0 mm 1 mps 742 mmHg 54%
21:00 +21°C° 0 mm 1 mps 742 mmHg 56%
22:00 +20°C° 0 mm 1 mps 742 mmHg 58%
23:00 +20°C° 0 mm 1 mps 742 mmHg 60%
Show more